Regional Weather Roundup
Issued by NWS

Home | Current Version | Previous Version | Graphics & Text | Print | Product List | Glossary On
Versions: 1 2 3 4 5 6 7 8 9 10 11 12 13 14 15 16 17 18 19 20 21 22 23 24 25 26 27 28 29 30 31 32 33 34 35 36 37 38 39 40 41 42 43 44 45 46 47 48 49 50
000
ASUS43 KDTX 221310
RWRMI
MICHIGAN HOURLY REGIONAL WEATHER ROUNDUP
NATIONAL WEATHER SERVICE DETROIT/PONTIAC MI
900 AM EDT MON SEP 22 2014

NOTE: "FAIR" INDICATES FEW OR NO CLOUDS BELOW 12,000 FEET WITH NO
SIGNIFICANT WEATHER AND/OR OBSTRUCTION TO VISIBILITY.

MIZ047>049-052>055-059>063-066>070-074>076-081>083-221400-
SOUTHEAST LOWER MICHIGAN

CITY           SKY/WX    TMP DP  RH WIND       PRES   REMARKS
ADRIAN         MOSUNNY   47  39  74 NW6       30.20R
ALMA           SUNNY     46  42  85 W9        30.20R
ANN ARBOR      CLOUDY    48  38  68 NW10      30.18R
BAD AXE        CLOUDY    47  40  75 NW10      30.14R
CARO           CLOUDY    47  43  84 W9        30.15R
DETROIT CITY   CLOUDY    51  37  58 NW7       30.17R
DETROIT        CLOUDY    49  38  65 NW10      30.18R
FLINT          CLOUDY    49  41  74 NW12      30.19R
GROSSE ILE     CLOUDY    50  39  66 NW6       30.15S
HILLSDALE      SUNNY     47  41  80 NW8       30.19R
HOWELL         CLOUDY    46  42  85 NW8       30.18R

CITY           SKY/WX    TMP DP  RH WIND       PRES   REMARKS
JACKSON        SUNNY     46  40  79 VRB7      30.19R
LAMBERTVILLE   CLOUDY    50  37  62 N5        30.19R
LANSING        SUNNY     46  40  79 NW10      30.21R
LAPEER         CLOUDY    46  40  80 NW7       30.16R
MASON          CLOUDY    45  40  84 NW7       30.19R
MONROE         CLOUDY    48  37  66 N5        30.16R
MT. CLEMENS    CLOUDY    49  40  71 NW9       30.13R
PONTIAC        CLOUDY    47  39  74 NW9       30.15R
PORT HOPE        N/A     50  39  66 NW9G17    30.11R
PORT HURON     CLOUDY    48  41  76 W6        30.14R
TRI CITIES     CLOUDY    49  43  80 W9        30.18R
TROY           CLOUDY    50  38  64 W5        30.18R
SAGINAW HB     MOSUNNY   48  43  81 NW9       30.17R
$$
MIZ043>046-050>051-056>058-064>065-071>073-077>080-221400-
SOUTHWEST LOWER MICHIGAN

CITY           SKY/WX    TMP DP  RH WIND       PRES   REMARKS
BATTLE CREEK   SUNNY     47  39  74 NW7       30.22R
BENTON HARBOR  MOSUNNY   47  40  76 CALM      30.24R
BIG RAPIDS     SUNNY     45  43  93 NW3       30.20R
COLDWATER      SUNNY     47  41  77 NW7       30.21R
FREMONT        FAIR      44  42  94 CALM      30.22R
HOLLAND        SUNNY     51  42  71 VRB3      30.23R
GRAND RAPIDS   MOSUNNY   48  40  73 NW8       30.22R
IONIA          FAIR      45  41  85 NW6       30.21R
KALAMAZOO      SUNNY     47  39  74 NW8       30.23R
LUDINGTON      PTSUNNY   49  46  87 NW6       30.22R
MARSHALL       SUNNY     45  39  79 NW7       30.21R
MOUNT PLEASANT SUNNY     46  41  83 W6        30.19R
MUSKEGON       MOSUNNY   51  43  74 N3        30.23S
SOUTH HAVEN    SUNNY     46  43  91 CALM      30.24R
$$
MIZ016>042-221400-
NORTHERN LOWER MICHIGAN

CITY           SKY/WX    TMP DP  RH WIND       PRES   REMARKS
ALPENA         CLOUDY    46  38  73 NW8       30.14R
BEAVER ISLAND  SUNNY     48  40  72 W5        30.17R
BELLAIRE       SUNNY     46  40  80 CALM      30.18R
CADILLAC       SUNNY     43  41  92 NW6       30.17S
CHARLEVOIX     SUNNY     50  42  74 NW7       30.20R
FRANKFORT      MOSUNNY   44  41  88 CALM      30.20S
GAYLORD        SUNNY     43  38  82 VRB5      30.15R
GRAYLING       MOSUNNY   44  41  88 W5        30.16S
HARBOR SPRINGS SUNNY     46  39  76 W5        30.16S
HOUGHTON LAKE  MOSUNNY   45  40  82 W7        30.17R
MANISTEE       MOSUNNY   43  39  87 CALM      30.22R
OSCODA         PTSUNNY   44  41  90 W6        30.13S
PELLSTON       SUNNY     46  39  76 NW5       30.16R
ROGERS CITY    CLOUDY    46  40  81 W6        30.14R
TRAVERSE CITY  MOSUNNY   46  41  82 S3        30.18R
$$
MIZ007>008-015-221400-
EASTERN UPPER MICHIGAN

CITY           SKY/WX    TMP DP  RH WIND       PRES   REMARKS
KINROSS        MOSUNNY   41  39  93 W7        30.13R
MACKINAC ISLAN SUNNY     45  37  73 W6        30.15R
NEWBERRY       MOSUNNY   38  36  95 W10       30.14S WCI  30
S. S. MARIE    MOSUNNY   45  37  73 NW3       30.12R
MUNISING         N/A     42  37  82 S9        30.14S
$$
MIZ004>006-011>014-085-221400-
CENTRAL UPPER MICHIGAN

CITY           SKY/WX    TMP DP  RH WIND       PRES   REMARKS
MANISTIQUE     SUNNY     42  40  93 W3        30.17S
ESCANABA       PTSUNNY   39  37  93 W6        30.18S WCI  35
MENOMINEE      SUNNY     41  37  87 W5        30.19S
SAWYER-GWINN   CLOUDY    39  37  93 SW3       30.14S
$$
MIZ001>003-009>011-084-221400-
WESTERN UPPER MICHIGAN

CITY           SKY/WX    TMP DP  RH WIND       PRES   REMARKS
IRON MOUNTAIN  CLOUDY    43  39  86 VRB3      30.17R
HOUGHTON       CLOUDY    51  47  86 W12       30.12S
COPPER HARBOR    N/A     54  46  74 VRB6      30.10R
IRONWOOD       SUNNY     46  46 100 W5        30.17R
$$

ABBREVIATIONS USED IN REMARKS
   TC - TEMPERATURE IN CELSIUS
  WCI - WIND CHILL INDEX
   HX - HEAT INDEX
  VSB - VISIBILITY



USA.gov is the U.S. government's official web portal to all federal, state and local government web resources and services.